[[{"header":{"parameterUnit":"m.s-1","parameterCategory":2,"la1":30.2992,"la2":30.254,"lo1":-89.0895,"lo2":-89.0443,"dy":0.0025,"dx":0.0025,"nx":19,"ny":19,"refTime":"2026-04-28T09:00:00:Z","depth":"0","parameterNumber":2,"parameterNumberName":"U-component_of_CURRENTS"},"data":[0,0,0,0.1644,0.1647,0.1803,0.1804,0.1958,0.196,0,0,0,0,0,0,0,0,0,0,0,0.1584,0.1584,0.1644,0.1647,0.1803,0.1804,0.1958,0.196,0,0,0,0,0,0,0,0,0,0,0,0.1583,0.1584,0.1585,0.1648,0.1803,0.1804,0.1958,0.1854,0,0,0,0,0,0,0,0,0,0,0.1709,0.1656,0.1584,0.1585,0.1649,0.1803,0.1804,0.1849,0.186,0.1872,0,0.189,0,0.1927,0.1968,0.1968,0,0,0,0.1656,0.1646,0.1689,0.1585,0.165,0.1802,0.1735,0.1856,0.1868,0.1886,0.1892,0.1899,0.1929,0.1969,0.1969,0.2111,0.2112,0,0,0.1648,0.1615,0.168,0.1696,0.1682,0.173,0.174,0.1864,0.1871,0.1893,0.1903,0.1932,0.197,0.1971,0.2111,0.2111,0,0,0,0.1617,0.1609,0.1649,0.1689,0.172,0.1734,0.1746,0.1866,0.1879,0.1905,0.1934,0.197,0.1972,0.211,0.2111,0.213,0,0,0,0.1612,0.1591,0.1645,0.1628,0.1718,0.1802,0.1745,0.1871,0.1886,0.1933,0.197,0.1973,0.2109,0.211,0.2128,0.2096,0,0,0,0.1578,0.1587,0.1602,0.1625,0.169,0.1801,0.1822,0.1876,0.1903,0.1969,0.1974,0.2109,0.211,0.2126,0.2094,0.2129,0,0,0,0.1544,0.1578,0.1602,0.1659,0.1688,0.1793,0.1822,0.1904,0.196,0.1971,0.2109,0.2111,0.2126,0.2094,0.2128,0.1986,0.198,0,0,0.1571,0.158,0.1619,0.1644,0.174,0.1772,0.1879,0.1957,0.1986,0.2065,0.2069,0.2129,0.2094,0.2129,0.2069,0.206,0,0,0,0.1618,0.1636,0.1673,0.1734,0.1808,0.1876,0.1952,0.1996,0.2086,0.2025,0.2153,0.213,0.2151,0.2064,0.2058,0.1824,0.2117,0.2117,0.2117,0.1595,0.1654,0.172,0.1796,0.1857,0.1957,0.2017,0.2087,0.2118,0.2164,0.2165,0.2224,0.2133,0.2127,0.1889,0.221,0.221,0.221,0.221,0.1631,0.1669,0.1742,0.1825,0.19,0.1979,0.2089,0.2126,0.2211,0.2216,0.2238,0.2111,0.2121,0.1869,0.2211,0.2211,0.2211,0.2211,0.2211,0.1604,0.1632,0.1692,0.1803,0.189,0.1988,0.2058,0.2135,0.2206,0.2228,0.2153,0.215,0.1911,0.2258,0.2258,0.2258,0.2258,0.2258,0.2258,0.1548,0.1612,0.1676,0.1783,0.1844,0.1924,0.2038,0.2087,0.2126,0.2136,0.2136,0.1886,0.2239,0.2215,0.2259,0.2259,0.2259,0.2259,0.2259,0.1526,0.1556,0.1638,0.1702,0.1827,0.1814,0.194,0.1963,0.2032,0.2019,0.1739,0.2101,0.2075,0.2078,0.2051,0.205,0.205,0.205,0.205,0.1495,0.1523,0.1614,0.1692,0.1755,0.1773,0.1683,0.1682,0.1612,0.1478,0.1523,0.1443,0.1462,0.1397,0.1415,0.1374,0.1201,0.12,0.1198,0.1493,0.1524,0.1565,0.1655,0.1721,0.1674,0.1476,0.1246,0.11,0.1145,0.1226,0.1262,0.113,0.1179,0.1069,0.1114,0.1046,0,0]},{"header":{"parameterUnit":"m.s-1","parameterCategory":2,"la1":30.2992,"la2":30.254,"lo1":-89.0895,"lo2":-89.0443,"dy":0.0025,"dx":0.0025,"nx":19,"ny":19,"refTime":"2026-04-28T09:00:00:Z","depth":"0","parameterNumber":3,"parameterNumberName":"V-component_of_CURRENTS"},"data":[0,0,0,0.0258,0.0259,0.0329,0.033,0.0437,0.0438,0,0,0,0,0,0,0,0,0,0,0,0.0237,0.0237,0.0258,0.026,0.0329,0.033,0.0436,0.0438,0,0,0,0,0,0,0,0,0,0,0,0.0237,0.0237,0.0238,0.026,0.0329,0.033,0.0436,0.0382,0,0,0,0,0,0,0,0,0,0,0.0313,0.029,0.0237,0.0238,0.026,0.0329,0.033,0.0379,0.0385,0.0407,0,0.0414,0,0.0424,0.0444,0.0445,0,0,0,0.0269,0.0285,0.0298,0.0238,0.0261,0.0329,0.0301,0.0382,0.0389,0.0415,0.0416,0.042,0.0425,0.0445,0.0445,0.0592,0.0593,0,0,0.0266,0.0257,0.0293,0.0302,0.0275,0.0298,0.0303,0.0386,0.0396,0.0416,0.0422,0.0427,0.0445,0.0446,0.0591,0.0592,0,0,0,0.0248,0.0255,0.0266,0.0298,0.0307,0.03,0.0305,0.0392,0.0394,0.0423,0.0428,0.0446,0.0447,0.059,0.0592,0.0634,0,0,0,0.0246,0.0244,0.0264,0.0262,0.0305,0.0349,0.0309,0.0389,0.0398,0.0428,0.0446,0.0448,0.0589,0.0591,0.0631,0.066,0,0,0,0.0234,0.0243,0.0248,0.0261,0.0286,0.0347,0.0355,0.0391,0.0401,0.0445,0.0448,0.0589,0.0591,0.0628,0.0655,0.072,0,0,0,0.0228,0.0253,0.0248,0.0288,0.0285,0.0354,0.0355,0.0408,0.0447,0.0447,0.0589,0.0591,0.0627,0.0652,0.0716,0.0742,0.076,0,0,0.0259,0.0257,0.0283,0.028,0.0349,0.0345,0.0437,0.0479,0.0489,0.0562,0.0566,0.0632,0.0655,0.0719,0.0861,0.0875,0,0,0,0.0293,0.0311,0.0333,0.037,0.0407,0.0467,0.0497,0.0527,0.0599,0.0519,0.0662,0.0676,0.0714,0.0724,0.0736,0.0708,0.0601,0.0601,0.0601,0.0325,0.0351,0.0406,0.0447,0.0493,0.0559,0.0616,0.0667,0.0655,0.0699,0.0732,0.0841,0.0853,0.0862,0.0833,0.0752,0.0752,0.0753,0.0753,0.0382,0.042,0.046,0.0518,0.0577,0.0649,0.0743,0.0756,0.0855,0.0813,0.0848,0.0795,0.0878,0.0842,0.0756,0.0755,0.0755,0.0755,0.0754,0.0407,0.043,0.0462,0.0547,0.0636,0.0708,0.0835,0.0878,0.0906,0.095,0.097,0.0969,0.092,0.0969,0.0969,0.0969,0.097,0.097,0.097,0.0416,0.0453,0.0509,0.0585,0.0651,0.0758,0.0891,0.0966,0.1037,0.1041,0.1041,0.0969,0.0908,0.0878,0.0977,0.0976,0.0975,0.0974,0.0974,0.0457,0.0466,0.0554,0.0616,0.0766,0.0894,0.099,0.1132,0.1189,0.1225,0.1117,0.1095,0.109,0.1079,0.1055,0.1194,0.1194,0.1194,0.1194,0.0479,0.049,0.0619,0.073,0.0866,0.0975,0.116,0.1247,0.1253,0.1226,0.1192,0.1131,0.1124,0.1115,0.1104,0.1079,0.1221,0.122,0.122,0.0516,0.0551,0.0653,0.0762,0.092,0.1071,0.1222,0.1266,0.1229,0.1216,0.1153,0.1152,0.1053,0.1043,0.1016,0.1003,0.0955,0,0]}],[{"header":{"parameterUnit":"m.s-1","parameterCategory":2,"la1":30.2992,"la2":30.254,"lo1":-89.0895,"lo2":-89.0443,"dy":0.0025,"dx":0.0025,"nx":19,"ny":19,"refTime":"2026-04-28T09:00:00:Z","depth":"2","parameterNumber":2,"parameterNumberName":"U-component_of_CURRENTS"},"data":[0,0,0,0.1438,0.144,0.1561,0.1562,0.1703,0.1704,0,0,0,0,0,0,0,0,0,0,0,0.1403,0.1403,0.1437,0.144,0.1561,0.1562,0.1703,0.1704,0,0,0,0,0,0,0,0,0,0,0,0.1402,0.1403,0.1404,0.144,0.1561,0.1562,0.1703,0.1618,0,0,0,0,0,0,0,0,0,0,0.1504,0.1464,0.1403,0.1404,0.1441,0.1561,0.1562,0.1615,0.1624,0.164,0,0.1657,0,0.1674,0.1712,0.1712,0,0,0,0.1455,0.1457,0.1489,0.1404,0.1442,0.156,0.1511,0.162,0.163,0.1651,0.1659,0.1664,0.1677,0.1713,0.1713,0.1874,0.1874,0,0,0.1448,0.1427,0.1482,0.1496,0.1471,0.1507,0.1514,0.1626,0.1635,0.1659,0.1668,0.1679,0.1714,0.1714,0.1873,0.1874,0,0,0,0.1419,0.1422,0.1453,0.149,0.1508,0.151,0.1519,0.1631,0.1641,0.1669,0.1681,0.1714,0.1716,0.1872,0.1873,0.195,0,0,0,0.1416,0.1404,0.145,0.1439,0.1505,0.1571,0.152,0.1634,0.1647,0.168,0.1714,0.1717,0.1871,0.1872,0.1946,0.1922,0,0,0,0.1397,0.1402,0.1415,0.1437,0.1482,0.157,0.1587,0.1637,0.1653,0.1713,0.1717,0.187,0.1872,0.1942,0.1918,0.1941,0,0,0,0.1373,0.1402,0.1415,0.1472,0.148,0.1578,0.1587,0.1681,0.1739,0.1715,0.1871,0.1873,0.1941,0.1915,0.1939,0.1711,0.1704,0,0,0.1395,0.1404,0.1444,0.1459,0.1529,0.1562,0.1679,0.1762,0.1773,0.1833,0.1837,0.1947,0.1918,0.194,0.1833,0.1822,0,0,0,0.1445,0.1453,0.1481,0.1534,0.1606,0.1687,0.1768,0.1818,0.1918,0.1813,0.1969,0.1946,0.1959,0.1817,0.181,0.1883,0.1883,0.1882,0.1882,0.142,0.1478,0.1539,0.1612,0.1681,0.1795,0.1872,0.1953,0.1975,0.2045,0.2029,0.2115,0.1969,0.1959,0.2079,0.208,0.208,0.208,0.208,0.1458,0.1504,0.1583,0.1657,0.1756,0.1865,0.1998,0.2046,0.2134,0.2134,0.2144,0.1927,0.1955,0.2087,0.2086,0.2085,0.2084,0.2084,0.2083,0.144,0.147,0.1535,0.1651,0.1781,0.1907,0.2007,0.209,0.2166,0.2191,0.2022,0.2017,0.2116,0.2213,0.2213,0.2213,0.2213,0.2213,0.2213,0.1405,0.1469,0.1537,0.1646,0.1719,0.1844,0.2005,0.2059,0.2059,0.2043,0.2041,0.2158,0.2153,0.2123,0.2214,0.2213,0.2213,0.2213,0.2213,0.137,0.1417,0.1483,0.1548,0.1706,0.172,0.188,0.1876,0.1932,0.1881,0.1956,0.1962,0.1896,0.1899,0.1861,0.1879,0.1879,0.1879,0.1879,0.134,0.1375,0.1477,0.1558,0.1632,0.1683,0.1563,0.1489,0.1549,0.1514,0.153,0.1457,0.1477,0.1385,0.1399,0.1351,0.1236,0.1235,0.1234,0.1329,0.1366,0.1417,0.1529,0.1613,0.158,0.1327,0.1005,0.0983,0.1213,0.1464,0.1827,0.1759,0.1776,0.1666,0.1677,0.1611,0,0]},{"header":{"parameterUnit":"m.s-1","parameterCategory":2,"la1":30.2992,"la2":30.254,"lo1":-89.0895,"lo2":-89.0443,"dy":0.0025,"dx":0.0025,"nx":19,"ny":19,"refTime":"2026-04-28T09:00:00:Z","depth":"2","parameterNumber":3,"parameterNumberName":"V-component_of_CURRENTS"},"data":[0,0,0,0.0049,0.0049,0.0071,0.0071,0.012,0.012,0,0,0,0,0,0,0,0,0,0,0,0.0052,0.0052,0.0049,0.0049,0.0071,0.0071,0.012,0.012,0,0,0,0,0,0,0,0,0,0,0,0.0052,0.0052,0.0052,0.0049,0.007,0.0071,0.012,0.01,0,0,0,0,0,0,0,0,0,0,0.0077,0.007,0.0052,0.0052,0.005,0.007,0.0071,0.0099,0.0101,0.0115,0,0.0122,0,0.0116,0.0124,0.0124,0,0,0,0.0056,0.0068,0.0075,0.0052,0.005,0.007,0.0063,0.01,0.0103,0.0118,0.0122,0.0124,0.0117,0.0124,0.0124,0.021,0.0211,0,0,0.0054,0.0054,0.0073,0.0077,0.0061,0.0062,0.0063,0.0101,0.0106,0.0122,0.0124,0.0117,0.0124,0.0125,0.021,0.021,0,0,0,0.0047,0.0054,0.0059,0.0075,0.0074,0.0062,0.0064,0.0105,0.0107,0.0125,0.0118,0.0124,0.0125,0.0209,0.021,0.0293,0,0,0,0.0046,0.0049,0.0059,0.0059,0.0073,0.0085,0.0067,0.0105,0.0108,0.0118,0.0124,0.0125,0.0208,0.0209,0.0289,0.0325,0,0,0,0.005,0.0049,0.0053,0.0059,0.0064,0.0084,0.0089,0.0105,0.0104,0.0124,0.0126,0.0208,0.0209,0.0286,0.032,0.039,0,0,0,0.0046,0.0064,0.0053,0.0078,0.0064,0.0093,0.0088,0.0115,0.0135,0.0125,0.0208,0.021,0.0285,0.0316,0.0386,0.0385,0.0403,0,0,0.0068,0.0067,0.0084,0.0075,0.0097,0.009,0.0141,0.0164,0.0162,0.0197,0.0199,0.029,0.0319,0.0389,0.0465,0.0481,0,0,0,0.0091,0.01,0.0107,0.0119,0.0131,0.0163,0.0176,0.0206,0.0264,0.0178,0.0295,0.0311,0.0352,0.0343,0.0356,0.0216,0.0216,0.0216,0.0216,0.0118,0.0125,0.0151,0.0166,0.019,0.022,0.0272,0.0315,0.0304,0.0355,0.0383,0.0496,0.0487,0.0497,0.0386,0.0386,0.0387,0.0387,0.0387,0.0159,0.018,0.0192,0.0221,0.0249,0.03,0.0383,0.0408,0.0517,0.0474,0.0511,0.0435,0.0516,0.0394,0.0392,0.0392,0.0391,0.039,0.039,0.0184,0.0194,0.0214,0.0257,0.0315,0.0364,0.0501,0.0544,0.0592,0.0645,0.0636,0.0633,0.0551,0.0669,0.067,0.067,0.0671,0.0671,0.0671,0.0205,0.0222,0.0261,0.03,0.0332,0.044,0.0579,0.0676,0.0736,0.0731,0.0731,0.0591,0.0582,0.0568,0.0679,0.0678,0.0677,0.0676,0.0676,0.0234,0.0253,0.0302,0.0329,0.0423,0.055,0.0665,0.0837,0.0903,0.093,0.0781,0.0776,0.0752,0.0739,0.0729,0.0875,0.0875,0.0875,0.0875,0.0257,0.0269,0.0357,0.0411,0.0503,0.061,0.0812,0.0884,0.0898,0.0838,0.084,0.0762,0.0756,0.0725,0.0713,0.0699,0.0838,0.0838,0.0838,0.0281,0.0309,0.0379,0.045,0.0533,0.0707,0.0858,0.0844,0.078,0.0833,0.0796,0.088,0.0765,0.0755,0.0702,0.0686,0.066,0,0]}],[{"header":{"parameterUnit":"m.s-1","parameterCategory":2,"la1":30.2992,"la2":30.254,"lo1":-89.0895,"lo2":-89.0443,"dy":0.0025,"dx":0.0025,"nx":19,"ny":19,"refTime":"2026-04-28T09:00:00:Z","depth":"4","parameterNumber":2,"parameterNumberName":"U-component_of_CURRENTS"},"data":[0,0,0,0.0659,0.0658,0.0636,0.0636,0.0614,0.0613,0,0,0,0,0,0,0,0,0,0,0,0.069,0.069,0.0659,0.0658,0.0636,0.0636,0.0614,0.0613,0,0,0,0,0,0,0,0,0,0,0,0.069,0.069,0.069,0.0658,0.0636,0.0637,0.0614,0.0635,0,0,0,0,0,0,0,0,0,0,0.0657,0.0689,0.069,0.069,0.0657,0.0636,0.0637,0.0636,0.0633,0.0617,0,0.0615,0,0.0592,0.061,0.0609,0,0,0,0.0681,0.0691,0.0664,0.069,0.0657,0.0636,0.0653,0.0635,0.0632,0.0614,0.0614,0.0612,0.0591,0.0609,0.0609,0.0597,0.0598,0,0,0.0683,0.0706,0.0666,0.0662,0.0651,0.0653,0.0652,0.0633,0.0643,0.0614,0.0611,0.0591,0.0609,0.0609,0.0597,0.0597,0,0,0,0.067,0.0707,0.0682,0.0664,0.0647,0.0652,0.065,0.0645,0.063,0.0611,0.0591,0.0609,0.0608,0.0597,0.0597,0.0626,0,0,0,0.0672,0.0697,0.0682,0.0699,0.0648,0.0646,0.0662,0.0632,0.0628,0.0591,0.0609,0.0607,0.0596,0.0597,0.0625,0.0614,0,0,0,0.0691,0.0699,0.0692,0.0699,0.0674,0.0645,0.0632,0.0632,0.0614,0.0609,0.0607,0.0596,0.0597,0.0624,0.0613,0.0685,0,0,0,0.0722,0.0704,0.0694,0.0671,0.0674,0.0612,0.0632,0.0609,0.0603,0.0608,0.0597,0.0597,0.0623,0.0612,0.0683,0.0527,0,0,0,0.0708,0.0704,0.0686,0.0674,0.0587,0.0617,0.0593,0.0605,0.0612,0.0606,0.0606,0.0625,0.0613,0.0685,0.0566,0,0,0,0,0.0686,0.0663,0.0637,0.0593,0.0555,0.0564,0.0573,0.0589,0.0628,0.0607,0.063,0.0621,0.0666,0.0569,0.06,0.06,0.06,0.06,0.06,0.0686,0.0644,0.0593,0.055,0.0523,0.0525,0.0552,0.0586,0.0603,0.0644,0.065,0.0725,0.0622,0.0667,0.0668,0.0668,0.0668,0.0668,0.0668,0.0622,0.0587,0.0555,0.0497,0.0503,0.0502,0.0552,0.0601,0.0679,0.0673,0.0718,0.061,0.0671,0.067,0.067,0.067,0.0669,0.0669,0.0669,0.0606,0.0581,0.0562,0.0485,0.0487,0.0522,0.0545,0.0614,0.0702,0.0736,0.0696,0.0757,0.0752,0.0805,0.0805,0.0806,0.0806,0.0806,0.0806,0.0597,0.0563,0.0499,0.0462,0.0454,0.048,0.057,0.0608,0.0705,0.07,0.0778,0.0772,0.0767,0.076,0.0811,0.081,0.0809,0.0809,0.0809,0.0542,0.0517,0.0426,0.0396,0.035,0.0365,0.0492,0.057,0.0638,0.0653,0.0689,0.0694,0.0675,0.0674,0.0662,0.0686,0.0684,0.0682,0,0.0511,0.048,0.0337,0.0248,0.0203,0.027,0.0329,0.0413,0.0519,0.0511,0.0615,0.0652,0.0656,0.0627,0.0623,0.0605,0,0,0,0.0457,0.0423,0.0313,0.0188,0.0118,0.0193,0.0335,0.036,0.0521,0.0509,0.0637,0.0649,0.0656,0.0824,0.0807,0.0801,0.0789,0,0]},{"header":{"parameterUnit":"m.s-1","parameterCategory":2,"la1":30.2992,"la2":30.254,"lo1":-89.0895,"lo2":-89.0443,"dy":0.0025,"dx":0.0025,"nx":19,"ny":19,"refTime":"2026-04-28T09:00:00:Z","depth":"4","parameterNumber":3,"parameterNumberName":"V-component_of_CURRENTS"},"data":[0,0,0,0.008,0.0081,0.0145,0.0146,0.0194,0.0194,0,0,0,0,0,0,0,0,0,0,0,0.0057,0.0057,0.008,0.0082,0.0145,0.0146,0.0194,0.0194,0,0,0,0,0,0,0,0,0,0,0,0.0057,0.0057,0.0058,0.0082,0.0145,0.0146,0.0194,0.0154,0,0,0,0,0,0,0,0,0,0,0.0097,0.0081,0.0057,0.0058,0.0082,0.0145,0.0146,0.0153,0.0157,0.0155,0,0.0165,0,0.018,0.0197,0.0197,0,0,0,0.0084,0.0078,0.0093,0.0058,0.0083,0.0145,0.0117,0.0155,0.016,0.016,0.0166,0.0168,0.0181,0.0197,0.0197,0.0206,0.0206,0,0,0.008,0.007,0.009,0.0096,0.0099,0.0115,0.0119,0.0158,0.0163,0.0166,0.0169,0.0181,0.0197,0.0197,0.0206,0.0206,0,0,0,0.0069,0.0068,0.0083,0.0094,0.0108,0.0117,0.0121,0.0161,0.0166,0.017,0.0182,0.0197,0.0198,0.0206,0.0206,0.025,0,0,0,0.0066,0.0061,0.0081,0.0076,0.0107,0.014,0.0123,0.0163,0.0169,0.0182,0.0197,0.0198,0.0206,0.0206,0.025,0.0281,0,0,0,0.0054,0.006,0.0067,0.0076,0.0102,0.014,0.0148,0.0165,0.0175,0.0197,0.0198,0.0206,0.0206,0.0249,0.0279,0.0304,0,0,0,0.0042,0.0061,0.0066,0.01,0.0102,0.0151,0.0148,0.0183,0.0203,0.0197,0.0206,0.0206,0.0249,0.0278,0.0302,0.0271,0,0,0,0.006,0.0063,0.0086,0.0092,0.0146,0.0142,0.0188,0.0208,0.0192,0.0192,0.0192,0.025,0.0279,0.0303,0.0248,0,0,0,0,0.0089,0.0103,0.0121,0.0156,0.0184,0.0215,0.0227,0.0222,0.0225,0.0202,0.0229,0.0246,0.0261,0.0236,0.0204,0.0204,0.0204,0.0204,0.0204,0.0099,0.0127,0.0173,0.021,0.0238,0.0263,0.0278,0.0266,0.0249,0.0244,0.0267,0.0296,0.0269,0.0242,0.0242,0.0242,0.0242,0.0242,0.0242,0.0141,0.0172,0.0212,0.0261,0.0292,0.0326,0.0336,0.0322,0.0321,0.0289,0.03,0.0265,0.0246,0.0246,0.0245,0.0245,0.0244,0.0244,0.0244,0.0149,0.0168,0.0207,0.0286,0.0345,0.0376,0.0419,0.0401,0.0371,0.0377,0.0343,0.0328,0.0343,0.038,0.038,0.038,0.038,0.0381,0.0381,0.0138,0.0181,0.0239,0.0315,0.0375,0.0433,0.047,0.0466,0.0435,0.0395,0.0393,0.0342,0.0338,0.035,0.0385,0.0384,0.0383,0.0383,0.0383,0.0149,0.0166,0.0252,0.0315,0.0441,0.0479,0.0523,0.0495,0.0488,0.0451,0.0399,0.0397,0.0382,0.0377,0.0389,0.0437,0.0437,0.0437,0,0.0143,0.0162,0.0265,0.0365,0.0451,0.0503,0.0506,0.0495,0.0448,0.0436,0.0469,0.0411,0.0408,0.0391,0.0386,0.04,0,0,0,0.0156,0.0183,0.0246,0.0345,0.0452,0.047,0.0497,0.0478,0.0465,0.0438,0.0431,0.0432,0.0407,0.0396,0.0368,0.0363,0.0381,0,0]}]]